CW1631 Weather Reports


Display with metric or nautical units.
time (UTC)temp
F
wind
direction
speed
MPH
gust
MPH
rain 1hr
in
rain 24hr
in
rain mn
in
humidity
%
barometer
mb
20260904125550 68 42 2.0 2.0 0.00 0.29 0.29 92 1014.4
20260904125049 68 294 1.0 1.0 0.00 0.29 0.29 94 1014.5
20260904124545 68 316 1.0 1.0 0.00 0.29 0.29 95 1014.4
20260904124040 67 86 2.0 2.0 0.00 0.29 0.29 96 1014.4
20260904123535 67 235 1.0 1.0 0.00 0.29 0.29 97 1014.4
20260904123031 68 209 3.0 3.0 0.00 0.29 0.29 99 1014.4
20260904122531 67 163 2.0 2.0 0.00 0.29 0.29 99 1014.3
20260904122026 67 186 2.0 2.0 0.00 0.29 0.29 99 1014.3
20260904121521 66 171 2.0 2.0 0.00 0.29 0.29 99 1014.4
20260904121017 66 196 2.0 2.0 0.00 0.29 0.29 99 1014.2
20260904120512 66 167 2.0 2.0 0.00 0.29 0.29 99 1014.3
20260904120003 65 214 1.0 1.0 0.00 0.29 0.29 99 1014.4
20260904115458 65 137 3.0 3.0 0.00 0.29 0.29 99 1014.4
20260904114957 66 116 1.0 1.0 0.00 0.29 0.29 99 1014.2
20260904114452 66 278 0.0 0.0 0.00 0.29 0.29 99 1014.4
20260904113947 65 253 0.0 0.0 0.00 0.29 0.29 99 1014.1
20260904113446 65 258 0.0 0.0 0.00 0.29 0.29 99 1014.1
20260904112945 65 271 0.0 0.0 0.00 0.29 0.29 99 1014.3
20260904112442 65 264 0.0 0.0 0.00 0.29 0.29 99 1014.3
20260904111937 65 270 0.0 0.0 0.00 0.29 0.29 99 1014.2
20260904111433 65 258 0.0 0.0 0.00 0.29 0.29 99 1014.0
20260904110928 65 341 1.0 1.0 0.00 0.29 0.29 99 1014.1
20260904110427 65 304 1.0 1.0 0.00 0.29 0.29 99 1013.9
20260904105923 65 17 1.0 2.0 0.00 0.29 0.29 99 1014.0
20260904105418 65 264 0.0 0.0 0.00 0.29 0.29 99 1014.1
20260904104913 65 238 1.0 1.0 0.00 0.29 0.29 99 1014.1
20260904104407 66 250 0.0 0.0 0.00 0.29 0.29 99 1013.9
20260904103905 66 262 0.0 0.0 0.00 0.29 0.29 99 1013.9
20260904103405 66 280 0.0 0.0 0.00 0.29 0.29 99 1013.8
20260904102901 66 331 0.0 1.0 0.00 0.29 0.29 99 1013.7
20260904102355 66 293 0.0 0.0 0.00 0.29 0.29 99 1013.8
20260904101851 66 309 0.0 0.0 0.00 0.29 0.29 99 1013.6
20260904101348 66 263 0.0 0.0 0.00 0.29 0.29 99 1013.6
20260904100843 66 250 0.0 0.0 0.00 0.29 0.29 99 1013.7
20260904100339 66 230 1.0 1.0 0.00 0.29 0.29 99 1013.6
20260904095833 66 260 1.0 1.0 0.00 0.29 0.29 99 1013.5
20260904095328 66 242 1.0 1.0 0.00 0.29 0.29 99 1013.5
20260904094823 66 278 0.0 0.0 0.00 0.29 0.29 99 1013.5
20260904094318 66 269 0.0 0.0 0.00 0.29 0.29 99 1013.4
20260904093814 66 276 0.0 0.0 0.00 0.29 0.29 99 1013.3
20260904093309 66 275 0.0 0.0 0.00 0.29 0.29 99 1013.6
20260904092804 66 269 0.0 0.0 0.00 0.29 0.29 99 1013.4
20260904092301 66 257 0.0 0.0 0.00 0.29 0.29 99 1013.4
20260904091756 66 237 0.0 1.0 0.00 0.29 0.29 99 1013.3
20260904091251 66 266 0.0 0.0 0.00 0.29 0.29 99 1013.7
20260904090746 66 258 0.0 0.0 0.00 0.29 0.29 99 1013.4
20260904090237 66 200 1.0 2.0 0.00 0.29 0.29 99 1013.3
20260904085737 66 258 0.0 0.0 0.00 0.29 0.29 99 1013.5
20260904085232 66 283 1.0 1.0 0.00 0.29 0.29 99 1013.6
20260904084726 66 276 1.0 1.0 0.00 0.29 0.29 99 1013.4
20260904084222 66 272 1.0 1.0 0.00 0.29 0.29 99 1013.1
20260904083718 66 275 1.0 1.0 0.00 0.29 0.29 99 1013.2
20260904083215 66 270 0.0 0.0 0.00 0.29 0.29 99 1012.9
20260904082709 66 250 0.0 0.0 0.00 0.29 0.29 99 1013.1
20260904082204 66 273 0.0 0.0 0.00 0.29 0.29 99 1012.9
20260904081659 67 268 0.0 0.0 0.00 0.29 0.29 99 1012.9
20260904081155 67 215 1.0 1.0 0.00 0.29 0.29 99 1012.8
20260904080651 67 227 1.0 1.0 0.00 0.29 0.29 99 1012.9
20260904080146 67 233 1.0 1.0 0.00 0.29 0.29 99 1012.6
20260904075642 67 228 0.0 1.0 0.00 0.29 0.29 99 1012.6
20260904075137 68 249 0.0 0.0 0.00 0.29 0.29 99 1012.5
20260904074630 68 269 0.0 0.0 0.00 0.29 0.29 99 1012.8
20260904074125 68 262 1.0 1.0 0.00 0.29 0.29 99 1012.5
20260904073620 68 262 0.0 0.0 0.00 0.29 0.29 99 1012.5
20260904073116 68 258 1.0 1.0 0.00 0.29 0.29 99 1012.3
20260904072611 68 271 0.0 0.0 0.00 0.29 0.29 99 1012.3
20260904072107 68 254 0.0 0.0 0.00 0.29 0.29 99 1012.3
20260904071603 68 219 1.0 1.0 0.00 0.29 0.29 99 1012.2
20260904071057 68 252 0.0 0.0 0.00 0.29 0.29 99 1012.3
20260904070556 68 257 0.0 0.0 0.00 0.29 0.29 99 1012.5
20260904070051 69 265 0.0 0.0 0.00 0.29 0.29 99 1012.3
20260904065546 69 278 0.0 1.0 0.00 0.29 0.29 99 1012.4
20260904065043 69 283 1.0 1.0 0.00 0.29 0.29 99 1012.3
20260904064538 69 246 0.0 1.0 0.00 0.29 0.29 99 1012.4
20260904064033 69 279 0.0 0.0 0.00 0.29 0.29 99 1012.3
20260904063529 69 252 1.0 1.0 0.00 0.29 0.29 99 1012.4
20260904063024 69 243 1.0 1.0 0.00 0.29 0.29 99 1012.3
20260904062520 69 252 0.0 0.0 0.00 0.29 0.29 99 1012.2
20260904062015 69 269 0.0 0.0 0.00 0.29 0.29 99 1012.4
20260904061511 69 342 1.0 1.0 0.00 0.29 0.29 99 1012.3
20260904061008 69 344 1.0 1.0 0.00 0.29 0.29 99 1012.2
20260904060503 69 284 0.0 0.0 0.00 0.29 0.29 99 1012.6
20260904055959 69 274 0.0 0.0 0.00 0.29 0.29 98 1012.5
20260904055454 69 357 1.0 1.0 0.00 0.29 0.29 98 1012.8
20260904054949 69 67 1.0 1.0 0.00 0.29 0.29 98 1012.5
20260904054445 69 91 1.0 1.0 0.05 0.29 0.29 98 1012.6
20260904053941 69 230 1.0 1.0 0.05 0.29 0.29 98 1013.0
20260904053440 69 244 0.0 1.0 0.00 0.28 0.28 98 1013.0
20260904052936 69 309 0.0 1.0 0.00 0.28 0.28 98 1013.0
20260904052432 69 276 0.0 0.0 0.00 0.28 0.28 98 1012.9
20260904051928 69 309 1.0 1.0 0.00 0.28 0.28 98 1013.2
20260904051424 70 311 1.0 1.0 0.00 0.28 0.28 98 1012.8
20260904050923 70 86 0.0 1.0 0.00 0.28 0.28 98 1013.3
20260904050420 70 111 1.0 2.0 0.07 0.28 0.28 98 1013.1
20260904045920 70 98 3.0 3.0 0.19 0.28 0.28 98 1013.3
20260904045415 70 80 3.0 3.0 0.24 0.27 0.27 98 1013.2
20260904044915 70 37 1.0 1.0 0.35 0.25 0.25 98 1013.5
20260904044411 70 343 1.0 1.0 0.50 0.24 0.24 98 1013.4
20260904043907 70 324 2.0 2.0 0.40 0.20 0.20 98 1013.7
20260904043404 70 272 1.0 1.0 0.38 0.15 0.15 98 1013.8
20260904042859 70 260 0.0 1.0 0.31 0.13 0.13 98 1013.6
20260904042355 70 232 3.0 3.0 0.35 0.10 0.10 98 1013.6
20260904041849 70 295 0.0 0.0 0.35 0.08 0.08 98 1013.3
20260904041346 70 266 0.0 0.0 0.24 0.04 0.04 98 1013.4
20260904040842 70 339 2.0 3.0 0.12 0.02 0.02 98 1013.4
20260904040337 71 287 2.0 2.0 0.07 0.00 0.00 98 1013.3
20260904035833 71 217 3.0 3.0 0.07 0.57 0.57 98 1013.0
20260904035329 71 264 0.0 0.0 0.00 0.56 0.56 98 1013.1
20260904034827 71 338 0.0 1.0 0.00 0.56 0.56 98 1013.0
20260904034323 71 348 1.0 1.0 0.00 0.56 0.56 98 1012.9
20260904033819 71 32 1.0 2.0 0.00 0.56 0.56 98 1012.9
20260904033315 71 36 1.0 1.0 0.00 0.56 0.56 98 1013.2
20260904032811 71 278 0.0 0.0 0.00 0.56 0.56 98 1012.9
20260904032311 71 52 1.0 1.0 0.00 0.56 0.56 98 1013.1
20260904031805 71 322 1.0 1.0 0.00 0.56 0.56 98 1013.1
20260904031300 71 281 0.0 0.0 0.00 0.56 0.56 98 1013.0
20260904030756 71 318 0.0 1.0 0.00 0.56 0.56 98 1013.0
20260904030251 71 290 0.0 0.0 0.00 0.56 0.56 98 1013.0
20260904025748 71 276 0.0 0.0 0.00 0.56 0.56 98 1013.0
20260904025243 71 311 0.0 1.0 0.00 0.56 0.56 98 1012.6
20260904024737 71 268 0.0 0.0 0.00 0.56 0.56 98 1013.2
20260904024233 71 230 1.0 1.0 0.00 0.56 0.56 98 1013.2
20260904023730 71 248 0.0 1.0 0.00 0.56 0.56 98 1013.0
20260904023225 71 242 0.0 1.0 0.00 0.56 0.56 98 1013.4
20260904022724 71 191 1.0 2.0 0.00 0.56 0.56 98 1013.2
20260904022222 71 262 0.0 0.0 0.00 0.56 0.56 98 1013.0
20260904021717 71 334 2.0 2.0 0.00 0.56 0.56 98 1013.2
20260904021213 71 312 0.0 0.0 0.00 0.56 0.56 98 1013.2
20260904020708 71 212 1.0 1.0 0.00 0.56 0.56 98 1013.3
20260904020208 71 224 1.0 1.0 0.00 0.56 0.56 98 1013.5
20260904015706 71 274 0.0 0.0 0.00 0.56 0.56 98 1013.5
20260904015201 71 15 0.0 0.0 0.00 0.56 0.56 97 1013.3
20260904014659 71 313 0.0 0.0 0.00 0.56 0.56 97 1013.4
20260904014155 71 277 0.0 0.0 0.00 0.56 0.56 97 1013.6
20260904013652 71 283 0.0 0.0 0.00 0.56 0.56 97 1013.4
20260904013147 71 283 0.0 0.0 0.00 0.56 0.56 97 1013.7
20260904012643 71 251 1.0 1.0 0.00 0.56 0.56 97 1013.6
20260904012142 71 217 1.0 1.0 0.00 0.56 0.56 97 1013.7
20260904011641 71 234 1.0 1.0 0.00 0.56 0.56 97 1013.7
20260904011137 72 270 0.0 0.0 0.00 0.56 0.56 97 1013.8
20260904010632 72 273 0.0 0.0 0.00 0.56 0.56 97 1013.8
20260904010129 72 176 2.0 2.0 0.00 0.56 0.56 97 1013.7
20260904005624 72 201 2.0 2.0 0.00 0.56 0.56 97 1013.6
20260904005119 72 283 2.0 2.0 0.00 0.56 0.56 97 1013.7
20260904004615 72 307 1.0 1.0 0.00 0.56 0.56 96 1013.3
20260904004114 72 234 1.0 1.0 0.00 0.56 0.56 97 1013.4
20260904003611 72 241 0.0 1.0 0.00 0.56 0.56 96 1013.2
20260904003106 72 316 0.0 1.0 0.00 0.56 0.56 96 1013.4
20260904002602 72 205 1.0 1.0 0.00 0.56 0.56 97 1013.3
20260904002056 72 255 0.0 0.0 0.00 0.56 0.56 96 1013.1
20260904001551 72 277 3.0 3.0 0.00 0.56 0.56 96 1013.3
20260904001051 72 90 1.0 1.0 0.00 0.56 0.56 96 1013.0
20260904000550 72 272 0.0 0.0 0.00 0.56 0.56 96 1013.0
20260904000042 72 227 1.0 1.0 0.00 0.56 0.56 95 1013.0
20260903235541 72 241 0.0 0.0 0.00 0.56 0.56 95 1013.0
20260903235037 73 232 1.0 1.0 0.00 0.56 0.56 95 1013.0
20260903234537 73 247 0.0 0.0 0.00 0.56 0.56 95 1013.4
20260903234033 73 231 1.0 1.0 0.00 0.56 0.56 94 1013.2
20260903233529 73 231 1.0 1.0 0.00 0.56 0.56 94 1013.2
20260903233025 74 339 0.0 1.0 0.00 0.56 0.56 94 1013.2
20260903232521 74 46 1.0 1.0 0.00 0.56 0.56 93 1013.3
20260903232021 74 353 1.0 1.0 0.00 0.56 0.56 93 1013.3
20260903231515 75 239 0.0 1.0 0.00 0.56 0.56 93 1013.3
20260903231009 75 252 0.0 0.0 0.00 0.56 0.56 93 1013.3
20260903230506 75 225 1.0 2.0 0.00 0.56 0.56 92 1013.2
20260903230003 76 243 0.0 1.0 0.00 0.56 0.56 92 1013.2
20260903225457 76 263 0.0 0.0 0.00 0.56 0.56 92 1013.0
20260903224954 76 237 1.0 1.0 0.00 0.56 0.56 91 1012.6
20260903224449 77 228 1.0 1.0 0.00 0.56 0.56 89 1012.6
20260903223945 77 236 0.0 0.0 0.00 0.56 0.56 89 1012.8
20260903223444 78 219 0.0 0.0 0.00 0.56 0.56 87 1012.6
20260903222943 78 236 0.0 0.0 0.00 0.56 0.56 85 1012.6
20260903222438 78 249 0.0 0.0 0.00 0.56 0.56 86 1012.5
20260903221937 79 247 0.0 0.0 0.00 0.56 0.56 87 1012.5
20260903221432 79 231 1.0 1.0 0.00 0.56 0.56 85 1012.4
20260903220929 79 210 1.0 1.0 0.00 0.56 0.56 85 1012.4
20260903220424 79 209 1.0 1.0 0.00 0.56 0.56 83 1012.2
20260903215921 80 220 1.0 1.0 0.00 0.56 0.56 80 1012.4
20260903215419 81 302 1.0 1.0 0.00 0.56 0.56 78 1012.4
20260903214916 82 84 1.0 1.0 0.00 0.56 0.56 73 1012.4
20260903214413 82 264 0.0 0.0 0.00 0.56 0.56 72 1012.5
20260903213912 81 284 0.0 1.0 0.00 0.56 0.56 72 1012.5
20260903213408 81 249 0.0 0.0 0.00 0.56 0.56 75 1012.5
20260903212904 81 282 0.0 1.0 0.00 0.56 0.56 75 1012.6
20260903212359 80 268 1.0 1.0 0.00 0.56 0.56 77 1012.6
20260903211859 80 299 0.0 0.0 0.00 0.56 0.56 76 1012.6
20260903211355 80 275 1.0 1.0 0.00 0.56 0.56 76 1012.6
20260903210851 80 267 0.0 0.0 0.00 0.56 0.56 78 1012.8
20260903210351 80 336 1.0 1.0 0.00 0.56 0.56 78 1012.5
20260903205850 80 312 1.0 1.0 0.00 0.56 0.56 78 1012.9
20260903205350 80 306 0.0 0.0 0.00 0.56 0.56 77 1012.6
20260903204845 80 325 2.0 2.0 0.00 0.56 0.56 76 1013.0
20260903204341 81 301 1.0 2.0 0.00 0.56 0.56 73 1013.0
20260903203837 81 231 3.0 3.0 0.00 0.56 0.56 72 1013.1
20260903203333 81 274 3.0 3.0 0.00 0.56 0.56 73 1013.0
20260903202831 81 241 4.0 7.0 0.00 0.56 0.56 74 1012.9
20260903202328 82 233 3.0 3.0 0.00 0.56 0.56 74 1013.0
20260903201827 82 202 3.0 3.0 0.00 0.56 0.56 72 1012.9
20260903201323 82 259 1.0 1.0 0.00 0.56 0.56 71 1012.9
20260903200821 82 320 1.0 1.0 0.00 0.56 0.56 70 1012.9
20260903200317 82 357 4.0 5.0 0.00 0.56 0.56 69 1013.0
20260903195812 81 302 2.0 2.0 0.00 0.56 0.56 72 1012.9
20260903195308 80 277 3.0 3.0 0.00 0.56 0.56 74 1012.8
20260903194803 80 8 3.0 3.0 0.00 0.56 0.56 74 1012.5
20260903194259 80 321 4.0 5.0 0.00 0.56 0.56 74 1012.8
20260903193754 80 274 3.0 5.0 0.00 0.56 0.56 74 1012.9
20260903193250 81 268 3.0 3.0 0.00 0.56 0.56 73 1013.0
20260903192745 82 325 6.0 8.0 0.00 0.56 0.56 70 1013.3
20260903192241 83 276 4.0 6.0 0.00 0.56 0.56 68 1012.9
20260903191737 83 290 1.0 1.0 0.00 0.56 0.56 69 1013.1
20260903191233 83 329 7.0 8.0 0.00 0.56 0.56 70 1013.3
20260903190727 82 254 2.0 3.0 0.00 0.56 0.56 72 1013.4
20260903190227 82 276 1.0 1.0 0.00 0.56 0.56 71 1013.6
20260903185721 83 262 2.0 2.0 0.00 0.56 0.56 69 1013.2
20260903185216 83 228 6.0 7.0 0.00 0.56 0.56 68 1013.4
20260903184713 82 221 4.0 5.0 0.00 0.56 0.56 70 1013.5
20260903184209 82 234 3.0 3.0 0.00 0.56 0.56 72 1013.4
20260903183709 81 273 1.0 1.0 0.00 0.56 0.56 76 1013.5
20260903183203 80 260 0.0 0.0 0.00 0.56 0.56 79 1013.6
20260903182702 80 255 2.0 2.0 0.00 0.56 0.56 77 1014.0
20260903182158 79 254 1.0 1.0 0.00 0.56 0.56 77 1013.8
20260903181655 80 243 3.0 5.0 0.00 0.56 0.56 75 1013.8
20260903181150 81 274 3.0 5.0 0.00 0.56 0.56 74 1013.6
20260903180645 82 196 4.0 5.0 0.00 0.56 0.56 74 1013.7
20260903180140 82 239 5.0 6.0 0.00 0.56 0.56 74 1013.9
20260903175639 80 312 2.0 2.0 0.00 0.56 0.56 76 1014.0
20260903175139 80 251 5.0 7.0 0.00 0.56 0.56 74 1013.7
20260903174633 81 246 7.0 9.0 0.00 0.56 0.56 72 1014.0
20260903174128 82 227 10.0 13.0 0.00 0.56 0.56 74 1013.8
20260903173623 81 231 9.0 10.0 0.00 0.56 0.56 73 1013.8
20260903173119 81 241 7.0 8.0 0.00 0.56 0.56 73 1013.7
20260903172614 82 245 5.0 6.0 0.00 0.56 0.56 71 1013.9
20260903172109 81 213 5.0 6.0 0.00 0.56 0.56 74 1013.7
20260903171609 80 272 8.0 9.0 0.00 0.56 0.56 72 1013.7
20260903171105 80 267 1.0 2.0 0.00 0.56 0.56 77 1013.9
20260903170603 79 224 4.0 6.0 0.00 0.56 0.56 79 1014.0
20260903170059 78 210 2.0 2.0 0.00 0.56 0.56 78 1013.8
20260903165556 78 235 4.0 6.0 0.00 0.56 0.56 80 1014.0
20260903165052 78 284 3.0 3.0 0.00 0.56 0.56 79 1014.1
20260903164547 78 301 2.0 3.0 0.00 0.56 0.56 79 1014.2
20260903164043 78 218 3.0 3.0 0.00 0.56 0.56 79 1014.3
20260903163543 78 213 5.0 7.0 0.00 0.56 0.56 83 1014.3
20260903163039 78 218 7.0 8.0 0.00 0.56 0.56 80 1014.4
20260903162535 77 257 3.0 3.0 0.00 0.56 0.56 81 1014.6
20260903162031 77 215 6.0 7.0 0.00 0.56 0.56 82 1014.5
20260903161526 77 226 4.0 5.0 0.00 0.56 0.56 82 1014.5
20260903161022 77 231 1.0 2.0 0.00 0.56 0.56 84 1014.6
20260903160520 75 229 4.0 5.0 0.00 0.56 0.56 85 1014.6
20260903160016 75 235 1.0 2.0 0.00 0.56 0.56 85 1014.7
20260903155514 75 221 5.0 6.0 0.00 0.56 0.56 87 1014.9
20260903155010 74 179 4.0 5.0 0.00 0.56 0.56 86 1015.0
20260903154506 74 235 1.0 1.0 0.00 0.56 0.56 88 1015.1
20260903154002 74 215 5.0 6.0 0.00 0.56 0.56 87 1015.0
20260903153457 74 241 4.0 5.0 0.00 0.56 0.56 88 1015.1
20260903152953 74 238 5.0 7.0 0.00 0.56 0.56 88 1015.3
20260903152448 74 224 4.0 6.0 0.00 0.56 0.56 88 1015.1
20260903151944 74 218 3.0 3.0 0.00 0.56 0.56 87 1014.9
20260903151438 74 214 4.0 5.0 0.00 0.56 0.56 88 1014.9
20260903150933 74 236 3.0 3.0 0.00 0.56 0.56 88 1015.1
20260903150422 74 223 3.0 3.0 0.00 0.56 0.56 87 1015.2
20260903145917 74 240 3.0 5.0 0.00 0.56 0.56 87 1015.1
20260903145412 73 287 3.0 5.0 0.00 0.56 0.56 88 1015.0
20260903144912 73 245 4.0 6.0 0.00 0.56 0.56 88 1014.8
20260903144401 73 222 5.0 6.0 0.00 0.56 0.56 88 1014.8
20260903143856 73 240 3.0 6.0 0.00 0.56 0.56 89 1015.0
20260903143354 73 234 5.0 6.0 0.00 0.56 0.56 88 1014.8
20260903142853 73 208 3.0 6.0 0.00 0.56 0.56 89 1014.9
20260903142349 72 216 4.0 5.0 0.00 0.56 0.56 90 1014.8
20260903141845 72 236 4.0 5.0 0.00 0.56 0.56 90 1014.8
20260903141341 72 230 4.0 5.0 0.00 0.56 0.56 91 1015.0
20260903140836 72 234 6.0 7.0 0.00 0.56 0.56 92 1014.9
20260903140331 72 237 4.0 5.0 0.00 0.56 0.56 92 1014.9
20260903135827 72 202 4.0 5.0 0.00 0.56 0.56 92 1014.8
20260903135322 71 223 2.0 3.0 0.00 0.56 0.56 92 1014.7
20260903134821 71 228 1.0 2.0 0.00 0.56 0.56 93 1014.9
20260903134316 71 225 4.0 5.0 0.00 0.56 0.56 93 1014.7
20260903133814 71 206 3.0 5.0 0.00 0.56 0.56 93 1014.9
20260903133310 71 215 4.0 5.0 0.00 0.56 0.56 93 1014.8
20260903132804 70 205 3.0 3.0 0.00 0.56 0.56 94 1014.6
20260903132300 70 208 4.0 5.0 0.00 0.56 0.56 94 1014.9
20260903131755 71 244 5.0 6.0 0.00 0.56 0.56 94 1014.7
20260903131254 71 179 5.0 6.0 0.00 0.56 0.56 95 1014.8
20260903130749 70 218 3.0 3.0 0.00 0.56 0.56 97 1014.9
20260903130244 69 229 3.0 5.0 0.00 0.56 0.56 97 1015.1